Wetterdaten: Montag, 22.07.2013
Datum Zeit Temperatur Luftfeuchte Luftdruck Regen Wind Richtung Richtung Taupunkt Windchill Windben
22.07.2013 00:00 15,9 C 76 % 1023,9 hPa 0,0 l/m 2,4 km/h (1 Bft) O-SO 112 11,7 C 15,0 C 0,0 km/h (0 Bft)
22.07.2013 00:05 15,1 C 75 % 1024,0 hPa 0,0 l/m 1,4 km/h (1 Bft) O 90 10,7 C 14,9 C 0,0 km/h (0 Bft)
22.07.2013 00:10 14,7 C 76 % 1024,0 hPa 0,0 l/m 0,0 km/h (0 Bft) O 90 10,5 C 14,4 C 0,0 km/h (0 Bft)
22.07.2013 00:15 14,7 C 77 % 1024,0 hPa 0,0 l/m 0,2 km/h (0 Bft) O 90 10,7 C 14,2 C 0,0 km/h (0 Bft)
22.07.2013 00:20 14,8 C 78 % 1024,0 hPa 0,0 l/m 0,6 km/h (0 Bft) O-SO 112 11,0 C 14,2 C 1,8 km/h (1 Bft)
22.07.2013 00:25 14,8 C 78 % 1024,1 hPa 0,0 l/m 0,6 km/h (0 Bft) O 90 11,0 C 14,3 C 2,3 km/h (1 Bft)
22.07.2013 00:30 14,9 C 78 % 1024,1 hPa 0,0 l/m 1,3 km/h (1 Bft) O-SO 112 11,1 C 14,6 C 4,2 km/h (1 Bft)
22.07.2013 00:35 14,7 C 78 % 1024,1 hPa 0,0 l/m 1,0 km/h (0 Bft) NO 45 10,9 C 14,6 C 0,0 km/h (0 Bft)
22.07.2013 00:40 14,6 C 78 % 1024,1 hPa 0,0 l/m 0,5 km/h (0 Bft) O 90 10,8 C 14,4 C 1,8 km/h (1 Bft)
22.07.2013 00:45 14,5 C 78 % 1023,9 hPa 0,0 l/m 0,3 km/h (0 Bft) W-SW 247 10,7 C 14,5 C 0,0 km/h (0 Bft)
22.07.2013 00:50 14,3 C 79 % 1023,9 hPa 0,0 l/m 0,2 km/h (0 Bft) O 90 10,7 C 14,2 C 0,0 km/h (0 Bft)
22.07.2013 00:55 14,5 C 79 % 1023,9 hPa 0,0 l/m 0,2 km/h (0 Bft) O 90 10,9 C 14,1 C 0,0 km/h (0 Bft)
22.07.2013 01:00 14,5 C 79 % 1023,9 hPa 0,0 l/m 0,2 km/h (0 Bft) O-SO 112 10,9 C 14,0 C 0,0 km/h (0 Bft)
22.07.2013 01:05 14,1 C 78 % 1023,9 hPa 0,0 l/m 0,0 km/h (0 Bft) S 180 10,3 C 13,9 C 0,0 km/h (0 Bft)
22.07.2013 01:10 13,6 C 79 % 1023,9 hPa 0,0 l/m 0,0 km/h (0 Bft) S 180 10,0 C 13,5 C 0,0 km/h (0 Bft)
22.07.2013 01:15 13,9 C 82 % 1023,9 hPa 0,0 l/m 0,3 km/h (0 Bft) NO 45 10,9 C 13,3 C 0,0 km/h (0 Bft)
22.07.2013 01:20 14,0 C 82 % 1023,9 hPa 0,0 l/m 0,3 km/h (0 Bft) NO 45 11,0 C 13,2 C 0,0 km/h (0 Bft)
22.07.2013 01:25 13,9 C 82 % 1023,8 hPa 0,0 l/m 0,0 km/h (0 Bft) NO 45 10,9 C 13,2 C 0,0 km/h (0 Bft)
22.07.2013 01:30 13,8 C 82 % 1023,8 hPa 0,0 l/m 0,0 km/h (0 Bft) NO 45 10,8 C 13,0 C 0,0 km/h (0 Bft)
22.07.2013 01:35 13,6 C 82 % 1023,8 hPa 0,0 l/m 0,0 km/h (0 Bft) NO 45 10,6 C 13,0 C 0,0 km/h (0 Bft)
22.07.2013 01:40 13,2 C 81 % 1023,8 hPa 0,0 l/m 0,0 km/h (0 Bft) SO 135 10,0 C 12,7 C 0,0 km/h (0 Bft)
22.07.2013 01:45 13,1 C 82 % 1023,8 hPa 0,0 l/m 0,0 km/h (0 Bft) NO 45 10,1 C 12,7 C 0,0 km/h (0 Bft)
22.07.2013 01:50 12,8 C 83 % 1023,8 hPa 0,0 l/m 0,0 km/h (0 Bft) NO 45 10,0 C 12,5 C 0,0 km/h (0 Bft)
22.07.2013 01:55 12,7 C 83 % 1023,8 hPa 0,0 l/m 0,0 km/h (0 Bft) NO 45 9,9 C 12,3 C 0,0 km/h (0 Bft)
22.07.2013 02:00 12,9 C 84 % 1023,8 hPa 0,0 l/m 0,0 km/h (0 Bft) NO 45 10,3 C 12,2 C 0,0 km/h (0 Bft)
22.07.2013 02:05 12,9 C 84 % 1023,6 hPa 0,0 l/m 0,0 km/h (0 Bft) NO 45 10,3 C 12,2 C 0,0 km/h (0 Bft)
22.07.2013 02:10 12,6 C 84 % 1023,6 hPa 0,0 l/m 0,0 km/h (0 Bft) NO 45 10,0 C 12,1 C 0,0 km/h (0 Bft)
22.07.2013 02:15 12,6 C 84 % 1023,6 hPa 0,0 l/m 0,0 km/h (0 Bft) NO 45 10,0 C 12,0 C 0,0 km/h (0 Bft)
22.07.2013 02:20 12,5 C 84 % 1023,6 hPa 0,0 l/m 0,0 km/h (0 Bft) W-SW 247 9,9 C 12,0 C 0,0 km/h (0 Bft)
22.07.2013 02:25 12,2 C 84 % 1023,5 hPa 0,0 l/m 0,0 km/h (0 Bft) S-SO 157 9,6 C 11,9 C 0,0 km/h (0 Bft)
22.07.2013 02:30 12,4 C 85 % 1023,5 hPa 0,0 l/m 0,0 km/h (0 Bft) SO 135 9,9 C 11,7 C 0,0 km/h (0 Bft)
22.07.2013 02:35 12,3 C 85 % 1023,5 hPa 0,0 l/m 0,0 km/h (0 Bft) O-NO 67 9,9 C 11,7 C 0,0 km/h (0 Bft)
22.07.2013 02:40 12,4 C 86 % 1023,5 hPa 0,0 l/m 0,2 km/h (0 Bft) O 90 10,1 C 11,8 C 0,0 km/h (0 Bft)
22.07.2013 02:45 12,6 C 86 % 1023,8 hPa 0,0 l/m 0,2 km/h (0 Bft) SO 135 10,3 C 11,8 C 0,0 km/h (0 Bft)
22.07.2013 02:50 12,5 C 86 % 1023,8 hPa 0,0 l/m 0,2 km/h (0 Bft) SO 135 10,2 C 11,9 C 0,0 km/h (0 Bft)
22.07.2013 02:55 12,3 C 86 % 1023,8 hPa 0,0 l/m 0,0 km/h (0 Bft) S-SW 202 10,0 C 11,9 C 0,0 km/h (0 Bft)
22.07.2013 03:00 12,3 C 86 % 1023,8 hPa 0,0 l/m 0,0 km/h (0 Bft) W-SW 247 10,0 C 11,8 C 0,0 km/h (0 Bft)
22.07.2013 03:05 12,2 C 86 % 1023,1 hPa 0,0 l/m 0,0 km/h (0 Bft) W-SW 247 9,9 C 11,8 C 0,0 km/h (0 Bft)
22.07.2013 03:10 12,2 C 87 % 1023,1 hPa 0,0 l/m 0,0 km/h (0 Bft) O 90 10,1 C 11,7 C 0,0 km/h (0 Bft)
22.07.2013 03:15 12,2 C 87 % 1023,1 hPa 0,0 l/m 0,0 km/h (0 Bft) NO 45 10,1 C 11,6 C 0,0 km/h (0 Bft)
22.07.2013 03:20 12,1 C 87 % 1023,1 hPa 0,0 l/m 0,0 km/h (0 Bft) NO 45 10,0 C 11,6 C 0,0 km/h (0 Bft)
22.07.2013 03:25 12,2 C 87 % 1023,2 hPa 0,0 l/m 0,5 km/h (0 Bft) O 90 10,1 C 11,6 C 2,7 km/h (1 Bft)
22.07.2013 03:30 12,1 C 87 % 1023,2 hPa 0,0 l/m 0,6 km/h (0 Bft) NO 45 10,0 C 11,6 C 0,0 km/h (0 Bft)
22.07.2013 03:35 11,9 C 87 % 1023,2 hPa 0,0 l/m 0,3 km/h (0 Bft) W-SW 247 9,8 C 11,5 C 0,0 km/h (0 Bft)
22.07.2013 03:40 11,8 C 87 % 1023,2 hPa 0,0 l/m 0,0 km/h (0 Bft) S-SW 202 9,7 C 11,3 C 0,0 km/h (0 Bft)
22.07.2013 03:45 11,7 C 87 % 1023,1 hPa 0,0 l/m 0,0 km/h (0 Bft) S-SW 202 9,6 C 11,2 C 0,0 km/h (0 Bft)
22.07.2013 03:50 11,6 C 87 % 1023,1 hPa 0,0 l/m 0,0 km/h (0 Bft) S 180 9,5 C 11,1 C 0,0 km/h (0 Bft)
22.07.2013 03:55 11,5 C 87 % 1023,1 hPa 0,0 l/m 0,0 km/h (0 Bft) NO 45 9,4 C 11,1 C 0,0 km/h (0 Bft)
22.07.2013 04:00 11,4 C 87 % 1023,1 hPa 0,0 l/m 0,0 km/h (0 Bft) NO 45 9,3 C 11,0 C 0,0 km/h (0 Bft)
22.07.2013 04:05 11,7 C 89 % 1022,9 hPa 0,0 l/m 0,5 km/h (0 Bft) NO 45 9,9 C 11,2 C 0,0 km/h (0 Bft)
22.07.2013 04:10 11,8 C 90 % 1022,9 hPa 0,0 l/m 0,8 km/h (0 Bft) NO 45 10,2 C 11,3 C 2,3 km/h (1 Bft)
22.07.2013 04:15 11,8 C 90 % 1022,9 hPa 0,0 l/m 0,5 km/h (0 Bft) NO 45 10,2 C 11,5 C 0,0 km/h (0 Bft)
22.07.2013 04:20 11,6 C 89 % 1022,9 hPa 0,0 l/m 0,3 km/h (0 Bft) NO 45 9,8 C 11,4 C 0,0 km/h (0 Bft)
22.07.2013 04:25 11,4 C 89 % 1022,9 hPa 0,0 l/m 0,0 km/h (0 Bft) NO 45 9,7 C 11,2 C 0,0 km/h (0 Bft)
22.07.2013 04:30 11,4 C 89 % 1022,9 hPa 0,0 l/m 0,0 km/h (0 Bft) NO 45 9,7 C 11,0 C 0,0 km/h (0 Bft)
22.07.2013 04:35 11,3 C 89 % 1022,9 hPa 0,0 l/m 0,0 km/h (0 Bft) NO 45 9,6 C 11,0 C 0,0 km/h (0 Bft)
22.07.2013 04:40 11,3 C 89 % 1022,9 hPa 0,0 l/m 0,0 km/h (0 Bft) NO 45 9,6 C 11,0 C 0,0 km/h (0 Bft)
22.07.2013 04:45 11,4 C 89 % 1023,0 hPa 0,0 l/m 0,0 km/h (0 Bft) NO 45 9,7 C 11,0 C 0,0 km/h (0 Bft)
22.07.2013 04:50 11,5 C 89 % 1023,0 hPa 0,0 l/m 0,0 km/h (0 Bft) NO 45 9,8 C 11,2 C 0,0 km/h (0 Bft)
22.07.2013 04:55 11,6 C 90 % 1023,0 hPa 0,0 l/m 0,2 km/h (0 Bft) NO 45 10,0 C 11,2 C 1,9 km/h (1 Bft)
22.07.2013 05:00 11,5 C 90 % 1023,0 hPa 0,0 l/m 0,2 km/h (0 Bft) O-NO 67 9,9 C 11,3 C 0,0 km/h (0 Bft)
22.07.2013 05:05 11,6 C 90 % 1023,1 hPa 0,0 l/m 0,2 km/h (0 Bft) NO 45 10,0 C 11,2 C 0,0 km/h (0 Bft)
22.07.2013 05:10 11,4 C 90 % 1023,1 hPa 0,0 l/m 0,0 km/h (0 Bft) NO 45 9,8 C 11,2 C 0,0 km/h (0 Bft)
22.07.2013 05:15 11,4 C 90 % 1023,1 hPa 0,0 l/m 0,0 km/h (0 Bft) NO 45 9,8 C 11,1 C 0,0 km/h (0 Bft)
22.07.2013 05:20 11,1 C 89 % 1023,1 hPa 0,0 l/m 0,0 km/h (0 Bft) NO 45 9,4 C 11,0 C 0,0 km/h (0 Bft)
22.07.2013 05:25 11,0 C 89 % 1022,8 hPa 0,0 l/m 0,0 km/h (0 Bft) NO 45 9,3 C 11,0 C 0,0 km/h (0 Bft)
22.07.2013 05:30 11,0 C 89 % 1022,8 hPa 0,0 l/m 0,0 km/h (0 Bft) NO 45 9,3 C 10,9 C 0,0 km/h (0 Bft)
22.07.2013 05:35 11,1 C 89 % 1022,8 hPa 0,0 l/m 0,0 km/h (0 Bft) NO 45 9,4 C 10,8 C 0,0 km/h (0 Bft)
22.07.2013 05:40 11,0 C 89 % 1022,8 hPa 0,0 l/m 0,0 km/h (0 Bft) NO 45 9,3 C 10,8 C 0,0 km/h (0 Bft)
22.07.2013 05:45 11,2 C 89 % 1022,9 hPa 0,0 l/m 0,0 km/h (0 Bft) NO 45 9,5 C 10,9 C 0,0 km/h (0 Bft)
22.07.2013 05:50 11,4 C 89 % 1022,9 hPa 0,0 l/m 0,0 km/h (0 Bft) O 90 9,7 C 10,9 C 0,0 km/h (0 Bft)
22.07.2013 05:55 11,4 C 89 % 1022,9 hPa 0,0 l/m 0,0 km/h (0 Bft) O 90 9,7 C 10,9 C 0,0 km/h (0 Bft)
22.07.2013 06:00 11,3 C 89 % 1022,9 hPa 0,0 l/m 0,0 km/h (0 Bft) NO 45 9,6 C 10,9 C 0,0 km/h (0 Bft)
22.07.2013 06:05 11,1 C 89 % 1023,0 hPa 0,0 l/m 0,0 km/h (0 Bft) O-SO 112 9,4 C 10,9 C 0,0 km/h (0 Bft)
22.07.2013 06:10 11,1 C 89 % 1023,0 hPa 0,0 l/m 0,0 km/h (0 Bft) O-SO 112 9,4 C 11,3 C 0,0 km/h (0 Bft)
22.07.2013 06:15 11,1 C 89 % 1023,0 hPa 0,0 l/m 0,0 km/h (0 Bft) O-SO 112 9,4 C 12,0 C 0,0 km/h (0 Bft)
22.07.2013 06:20 11,3 C 89 % 1023,0 hPa 0,0 l/m 0,0 km/h (0 Bft) O-SO 112 9,6 C 12,7 C 0,0 km/h (0 Bft)
22.07.2013 06:25 11,8 C 89 % 1022,9 hPa 0,0 l/m 0,0 km/h (0 Bft) NO 45 10,0 C 12,5 C 0,0 km/h (0 Bft)
22.07.2013 06:30 13,4 C 89 % 1022,9 hPa 0,0 l/m 0,0 km/h (0 Bft) NO 45 11,6 C 12,0 C 0,0 km/h (0 Bft)
22.07.2013 06:35 13,8 C 88 % 1022,9 hPa 0,0 l/m 0,0 km/h (0 Bft) NO 45 11,8 C 11,7 C 0,0 km/h (0 Bft)
22.07.2013 06:40 13,1 C 88 % 1022,9 hPa 0,0 l/m 0,0 km/h (0 Bft) NO 45 11,2 C 12,4 C 0,0 km/h (0 Bft)
22.07.2013 06:45 12,8 C 88 % 1023,1 hPa 0,0 l/m 0,0 km/h (0 Bft) NO 45 10,9 C 13,4 C 0,0 km/h (0 Bft)
22.07.2013 06:50 15,2 C 86 % 1023,1 hPa 0,0 l/m 0,2 km/h (0 Bft) NO 45 12,9 C 14,9 C 0,0 km/h (0 Bft)
22.07.2013 06:55 16,5 C 84 % 1023,1 hPa 0,0 l/m 0,2 km/h (0 Bft) NO 45 13,8 C 15,7 C 0,0 km/h (0 Bft)
22.07.2013 07:00 18,0 C 81 % 1023,1 hPa 0,0 l/m 0,0 km/h (0 Bft) O-NO 67 14,7 C 17,2 C 0,0 km/h (0 Bft)
22.07.2013 07:05 18,2 C 77 % 1022,9 hPa 0,0 l/m 0,0 km/h (0 Bft) NO 45 14,1 C 18,2 C 0,0 km/h (0 Bft)
22.07.2013 07:10 19,2 C 75 % 1022,9 hPa 0,0 l/m 0,0 km/h (0 Bft) O-NO 67 14,7 C 18,9 C 0,0 km/h (0 Bft)
22.07.2013 07:15 20,2 C 75 % 1022,9 hPa 0,0 l/m 0,0 km/h (0 Bft) NO 45 15,6 C 19,5 C 0,0 km/h (0 Bft)
22.07.2013 07:20 20,7 C 71 % 1022,9 hPa 0,0 l/m 0,0 km/h (0 Bft) SO 135 15,2 C 20,6 C 0,0 km/h (0 Bft)
22.07.2013 07:25 22,0 C 69 % 1023,0 hPa 0,0 l/m 0,0 km/h (0 Bft) S-SO 157 16,0 C 21,1 C 0,0 km/h (0 Bft)
22.07.2013 07:30 22,3 C 66 % 1023,0 hPa 0,0 l/m 0,0 km/h (0 Bft) O-NO 67 15,6 C 22,1 C 0,0 km/h (0 Bft)
22.07.2013 07:35 21,8 C 63 % 1023,0 hPa 0,0 l/m 0,0 km/h (0 Bft) NO 45 14,4 C 22,5 C 0,0 km/h (0 Bft)
22.07.2013 07:40 22,5 C 63 % 1023,0 hPa 0,0 l/m 0,0 km/h (0 Bft) NO 45 15,1 C 22,9 C 0,0 km/h (0 Bft)
22.07.2013 07:45 22,9 C 62 % 1023,0 hPa 0,0 l/m 0,0 km/h (0 Bft) NO 45 15,2 C 23,6 C 0,0 km/h (0 Bft)
22.07.2013 07:50 23,1 C 57 % 1023,0 hPa 0,0 l/m 0,0 km/h (0 Bft) NO 45 14,1 C 24,1 C 0,0 km/h (0 Bft)
22.07.2013 07:55 23,4 C 58 % 1023,0 hPa 0,0 l/m 0,0 km/h (0 Bft) SW 225 14,7 C 24,4 C 0,0 km/h (0 Bft)
22.07.2013 08:00 24,0 C 57 % 1023,0 hPa 0,0 l/m 0,0 km/h (0 Bft) S-SW 202 14,9 C 25,1 C 0,0 km/h (0 Bft)
22.07.2013 08:05 24,6 C 57 % 1023,1 hPa 0,0 l/m 0,0 km/h (0 Bft) W-SW 247 15,5 C 25,4 C 0,0 km/h (0 Bft)
22.07.2013 08:10 25,6 C 53 % 1023,1 hPa 0,0 l/m 0,0 km/h (0 Bft) O-SO 112 15,3 C 25,8 C 0,0 km/h (0 Bft)
22.07.2013 08:15 24,3 C 55 % 1023,1 hPa 0,0 l/m 0,2 km/h (0 Bft) NO 45 14,7 C 25,9 C 0,0 km/h (0 Bft)
22.07.2013 08:20 25,0 C 56 % 1023,1 hPa 0,0 l/m 0,3 km/h (0 Bft) SO 135 15,6 C 26,1 C 2,7 km/h (1 Bft)
22.07.2013 08:25 25,1 C 55 % 1023,4 hPa 0,0 l/m 0,6 km/h (0 Bft) S-SO 157 15,4 C 26,4 C 2,1 km/h (1 Bft)
22.07.2013 08:30 25,8 C 53 % 1023,4 hPa 0,0 l/m 1,0 km/h (0 Bft) S 180 15,5 C 26,6 C 0,0 km/h (0 Bft)
22.07.2013 08:35 26,1 C 50 % 1023,4 hPa 0,0 l/m 0,8 km/h (0 Bft) O-SO 112 14,8 C 26,7 C 0,0 km/h (0 Bft)
22.07.2013 08:40 26,3 C 50 % 1023,4 hPa 0,0 l/m 0,8 km/h (0 Bft) S-SO 157 15,0 C 27,6 C 2,6 km/h (1 Bft)
22.07.2013 08:45 27,7 C 48 % 1023,3 hPa 0,0 l/m 1,3 km/h (1 Bft) W-SW 247 15,7 C 27,5 C 1,9 km/h (1 Bft)
22.07.2013 08:50 26,5 C 48 % 1023,3 hPa 0,0 l/m 1,3 km/h (1 Bft) NO 45 14,6 C 27,9 C 0,0 km/h (0 Bft)
22.07.2013 08:55 26,1 C 48 % 1023,3 hPa 0,0 l/m 0,5 km/h (0 Bft) NO 45 14,2 C 28,0 C 0,0 km/h (0 Bft)
22.07.2013 09:00 26,8 C 50 % 1023,3 hPa 0,0 l/m 0,0 km/h (0 Bft) W-SW 247 15,5 C 28,6 C 0,0 km/h (0 Bft)
22.07.2013 09:05 27,5 C 47 % 1023,4 hPa 0,0 l/m 0,0 km/h (0 Bft) W-SW 247 15,2 C 29,3 C 0,0 km/h (0 Bft)
22.07.2013 09:10 27,0 C 50 % 1023,4 hPa 0,0 l/m 0,3 km/h (0 Bft) W-SW 247 15,7 C 29,5 C 2,9 km/h (1 Bft)
22.07.2013 09:15 28,0 C 47 % 1023,4 hPa 0,0 l/m 0,5 km/h (0 Bft) W-SW 247 15,6 C 29,5 C 0,0 km/h (0 Bft)
22.07.2013 09:20 29,0 C 44 % 1023,4 hPa 0,0 l/m 1,1 km/h (1 Bft) S 180 15,5 C 29,8 C 2,6 km/h (1 Bft)
22.07.2013 09:25 29,6 C 42 % 1023,7 hPa 0,0 l/m 1,3 km/h (1 Bft) W-SW 247 15,3 C 29,6 C 0,0 km/h (0 Bft)
22.07.2013 09:30 28,8 C 43 % 1023,7 hPa 0,0 l/m 1,0 km/h (0 Bft) S-SW 202 15,0 C 30,1 C 2,6 km/h (1 Bft)
22.07.2013 09:35 29,0 C 40 % 1023,7 hPa 0,0 l/m 1,3 km/h (1 Bft) S 180 14,0 C 30,1 C 3,4 km/h (1 Bft)
22.07.2013 09:40 29,7 C 38 % 1023,7 hPa 0,0 l/m 2,1 km/h (1 Bft) W-SW 247 13,8 C 29,8 C 5,1 km/h (1 Bft)
22.07.2013 09:45 29,1 C 39 % 1023,8 hPa 0,0 l/m 2,3 km/h (1 Bft) W-SW 247 13,7 C 29,8 C 2,1 km/h (1 Bft)
22.07.2013 09:50 28,9 C 40 % 1023,8 hPa 0,0 l/m 1,8 km/h (1 Bft) S-SW 202 13,9 C 30,2 C 3,5 km/h (1 Bft)
22.07.2013 09:55 28,8 C 40 % 1023,8 hPa 0,0 l/m 1,3 km/h (1 Bft) S 180 13,8 C 30,5 C 0,0 km/h (0 Bft)
22.07.2013 10:00 28,8 C 39 % 1023,8 hPa 0,0 l/m 1,9 km/h (1 Bft) S-SW 202 13,4 C 30,3 C 5,5 km/h (1 Bft)
22.07.2013 10:05 28,7 C 38 % 1026,2 hPa 0,0 l/m 2,3 km/h (1 Bft) N 360 13,0 C 30,0 C 0,0 km/h (0 Bft)
22.07.2013 10:10 28,7 C 37 % 1026,2 hPa 0,0 l/m 2,4 km/h (1 Bft) O 90 12,5 C 30,0 C 7,9 km/h (2 Bft)
22.07.2013 10:15 29,1 C 39 % 1026,2 hPa 0,0 l/m 2,1 km/h (1 Bft) N-NW 337 13,7 C 30,0 C 4,0 km/h (1 Bft)
22.07.2013 10:20 28,3 C 38 % 1026,2 hPa 0,0 l/m 2,1 km/h (1 Bft) W-NW 292 12,6 C 30,1 C 3,2 km/h (1 Bft)
22.07.2013 10:25 28,3 C 36 % 1026,3 hPa 0,0 l/m 3,2 km/h (1 Bft) W 270 11,8 C 29,7 C 3,7 km/h (1 Bft)
22.07.2013 10:30 28,1 C 36 % 1026,3 hPa 0,0 l/m 4,3 km/h (1 Bft) W 270 11,6 C 29,0 C 2,4 km/h (1 Bft)
22.07.2013 10:35 28,0 C 36 % 1026,3 hPa 0,0 l/m 3,2 km/h (1 Bft) NW 315 11,5 C 29,2 C 5,0 km/h (1 Bft)
22.07.2013 10:40 28,4 C 37 % 1026,3 hPa 0,0 l/m 2,7 km/h (1 Bft) S-SO 157 12,3 C 29,4 C 3,2 km/h (1 Bft)
22.07.2013 10:45 28,4 C 36 % 1025,3 hPa 0,0 l/m 2,4 km/h (1 Bft) W-NW 292 11,9 C 29,6 C 1,6 km/h (1 Bft)
22.07.2013 10:50 28,1 C 37 % 1025,3 hPa 0,0 l/m 2,1 km/h (1 Bft) SO 135 12,0 C 29,8 C 3,9 km/h (1 Bft)
22.07.2013 10:55 28,1 C 36 % 1025,3 hPa 0,0 l/m 2,4 km/h (1 Bft) W-NW 292 11,6 C 30,3 C 3,4 km/h (1 Bft)
22.07.2013 11:00 28,5 C 36 % 1025,3 hPa 0,0 l/m 1,9 km/h (1 Bft) NO 45 12,0 C 30,4 C 1,9 km/h (1 Bft)
22.07.2013 11:05 28,1 C 37 % 1023,1 hPa 0,0 l/m 1,9 km/h (1 Bft) N-NW 337 12,0 C 30,7 C 1,8 km/h (1 Bft)
22.07.2013 11:10 29,3 C 38 % 1023,1 hPa 0,0 l/m 2,1 km/h (1 Bft) W-SW 247 13,5 C 30,7 C 2,9 km/h (1 Bft)
22.07.2013 11:15 29,1 C 36 % 1023,1 hPa 0,0 l/m 3,1 km/h (1 Bft) N-NW 337 12,5 C 30,6 C 5,0 km/h (1 Bft)
22.07.2013 11:20 28,7 C 38 % 1023,1 hPa 0,0 l/m 2,9 km/h (1 Bft) W 270 13,0 C 30,1 C 0,0 km/h (0 Bft)
22.07.2013 11:25 28,9 C 37 % 1023,8 hPa 0,0 l/m 3,9 km/h (1 Bft) W-NW 292 12,7 C 30,0 C 7,1 km/h (2 Bft)
22.07.2013 11:30 29,4 C 37 % 1023,8 hPa 0,0 l/m 3,4 km/h (1 Bft) SW 225 13,2 C 29,5 C 8,9 km/h (2 Bft)
22.07.2013 11:35 28,8 C 37 % 1023,8 hPa 0,0 l/m 2,9 km/h (1 Bft) N 360 12,6 C 29,9 C 3,7 km/h (1 Bft)
22.07.2013 11:40 29,3 C 38 % 1023,8 hPa 0,0 l/m 2,7 km/h (1 Bft) N-NW 337 13,5 C 29,7 C 9,0 km/h (2 Bft)
22.07.2013 11:45 28,5 C 37 % 1024,1 hPa 0,0 l/m 3,7 km/h (1 Bft) W 270 12,4 C 29,6 C 6,6 km/h (2 Bft)
22.07.2013 11:50 27,9 C 36 % 1024,1 hPa 0,0 l/m 4,3 km/h (1 Bft) NO 45 11,4 C 29,2 C 9,2 km/h (2 Bft)
22.07.2013 11:55 29,1 C 37 % 1024,1 hPa 0,0 l/m 3,4 km/h (1 Bft) W-SW 247 12,9 C 29,3 C 2,3 km/h (1 Bft)
22.07.2013 12:00 29,2 C 36 % 1024,1 hPa 0,0 l/m 2,9 km/h (1 Bft) W 270 12,6 C 29,7 C 4,8 km/h (1 Bft)
22.07.2013 12:05 28,9 C 35 % 1024,1 hPa 0,0 l/m 3,5 km/h (1 Bft) NO 45 11,9 C 29,5 C 4,8 km/h (1 Bft)
22.07.2013 12:10 28,7 C 37 % 1024,1 hPa 0,0 l/m 4,0 km/h (1 Bft) W-NW 292 12,5 C 29,6 C 4,2 km/h (1 Bft)
22.07.2013 12:15 28,3 C 36 % 1024,1 hPa 0,0 l/m 4,2 km/h (1 Bft) S-SW 202 11,8 C 29,7 C 6,3 km/h (2 Bft)
22.07.2013 12:20 28,7 C 37 % 1024,1 hPa 0,0 l/m 3,9 km/h (1 Bft) W-SW 247 12,5 C 29,7 C 3,4 km/h (1 Bft)
22.07.2013 12:25 28,8 C 36 % 1023,8 hPa 0,0 l/m 4,0 km/h (1 Bft) NW 315 12,2 C 30,0 C 6,1 km/h (2 Bft)
22.07.2013 12:30 29,1 C 36 % 1023,8 hPa 0,0 l/m 4,2 km/h (1 Bft) N 360 12,5 C 29,9 C 14,0 km/h (3 Bft)
22.07.2013 12:35 28,9 C 36 % 1023,8 hPa 0,0 l/m 4,0 km/h (1 Bft) W-SW 247 12,3 C 29,9 C 3,2 km/h (1 Bft)
22.07.2013 12:40 28,9 C 35 % 1023,8 hPa 0,0 l/m 3,9 km/h (1 Bft) N-NO 22 11,9 C 29,9 C 0,0 km/h (0 Bft)
22.07.2013 12:45 28,5 C 35 % 1023,6 hPa 0,0 l/m 4,0 km/h (1 Bft) N-NW 337 11,5 C 29,8 C 4,0 km/h (1 Bft)
22.07.2013 12:50 28,9 C 36 % 1023,6 hPa 0,0 l/m 3,9 km/h (1 Bft) W 270 12,3 C 29,8 C 1,8 km/h (1 Bft)
22.07.2013 12:55 28,8 C 38 % 1023,6 hPa 0,0 l/m 3,1 km/h (1 Bft) NO 45 13,0 C 30,1 C 2,3 km/h (1 Bft)
22.07.2013 13:00 29,6 C 36 % 1023,6 hPa 0,0 l/m 2,4 km/h (1 Bft) W-NW 292 12,9 C 31,0 C 4,2 km/h (1 Bft)
22.07.2013 13:05 29,7 C 36 % 1023,4 hPa 0,0 l/m 2,6 km/h (1 Bft) W-SW 247 13,0 C 30,8 C 5,0 km/h (1 Bft)
22.07.2013 13:10 28,5 C 37 % 1023,4 hPa 0,0 l/m 3,5 km/h (1 Bft) W-NW 292 12,4 C 30,9 C 6,1 km/h (2 Bft)
22.07.2013 13:15 28,7 C 36 % 1023,4 hPa 0,0 l/m 4,0 km/h (1 Bft) W-NW 292 12,1 C 30,5 C 6,3 km/h (2 Bft)
22.07.2013 13:20 28,6 C 37 % 1023,4 hPa 0,0 l/m 4,0 km/h (1 Bft) W 270 12,5 C 30,3 C 5,0 km/h (1 Bft)
22.07.2013 13:25 28,6 C 36 % 1023,4 hPa 0,0 l/m 4,0 km/h (1 Bft) W-NW 292 12,0 C 30,2 C 3,2 km/h (1 Bft)
22.07.2013 13:30 29,0 C 36 % 1023,4 hPa 0,0 l/m 3,7 km/h (1 Bft) S-SW 202 12,4 C 30,5 C 3,9 km/h (1 Bft)
22.07.2013 13:35 29,3 C 36 % 1023,4 hPa 0,0 l/m 3,7 km/h (1 Bft) SW 225 12,7 C 30,5 C 3,9 km/h (1 Bft)
22.07.2013 13:40 28,4 C 36 % 1023,4 hPa 0,0 l/m 3,4 km/h (1 Bft) NW 315 11,9 C 30,8 C 3,9 km/h (1 Bft)
22.07.2013 13:45 28,6 C 36 % 1023,0 hPa 0,0 l/m 2,1 km/h (1 Bft) N-NW 337 12,0 C 31,1 C 4,0 km/h (1 Bft)
22.07.2013 13:50 28,6 C 36 % 1023,0 hPa 0,0 l/m 2,9 km/h (1 Bft) N-NW 337 12,0 C 31,4 C 7,6 km/h (2 Bft)
22.07.2013 13:55 28,6 C 36 % 1023,0 hPa 0,0 l/m 4,3 km/h (1 Bft) W-NW 292 12,0 C 31,0 C 7,6 km/h (2 Bft)
22.07.2013 14:00 29,4 C 35 % 1023,0 hPa 0,0 l/m 4,7 km/h (1 Bft) W-NW 292 12,3 C 30,8 C 7,4 km/h (2 Bft)
22.07.2013 14:05 29,3 C 34 % 1022,8 hPa 0,0 l/m 3,9 km/h (1 Bft) N-NW 337 11,8 C 30,7 C 3,5 km/h (1 Bft)
22.07.2013 14:10 29,1 C 35 % 1022,8 hPa 0,0 l/m 3,1 km/h (1 Bft) O 90 12,1 C 31,4 C 4,7 km/h (1 Bft)
22.07.2013 14:15 29,3 C 36 % 1022,8 hPa 0,0 l/m 3,5 km/h (1 Bft) S-SW 202 12,7 C 31,4 C 5,0 km/h (1 Bft)
22.07.2013 14:20 29,2 C 34 % 1022,8 hPa 0,0 l/m 4,0 km/h (1 Bft) N-NW 337 11,7 C 31,4 C 3,7 km/h (1 Bft)
22.07.2013 14:25 29,4 C 34 % 1022,6 hPa 0,0 l/m 3,5 km/h (1 Bft) N-NW 337 11,9 C 31,3 C 5,3 km/h (1 Bft)
22.07.2013 14:30 29,4 C 33 % 1022,6 hPa 0,0 l/m 4,3 km/h (1 Bft) W-SW 247 11,4 C 30,9 C 3,9 km/h (1 Bft)
22.07.2013 14:35 29,5 C 33 % 1022,6 hPa 0,0 l/m 4,7 km/h (1 Bft) W-SW 247 11,5 C 30,8 C 1,8 km/h (1 Bft)
22.07.2013 14:40 29,5 C 34 % 1022,6 hPa 0,0 l/m 4,3 km/h (1 Bft) W-SW 247 12,0 C 30,7 C 3,2 km/h (1 Bft)
22.07.2013 14:45 30,0 C 33 % 1022,6 hPa 0,0 l/m 3,7 km/h (1 Bft) N 360 11,9 C 31,2 C 2,9 km/h (1 Bft)
22.07.2013 14:50 29,1 C 35 % 1022,6 hPa 0,0 l/m 3,2 km/h (1 Bft) N-NW 337 12,1 C 31,8 C 6,0 km/h (2 Bft)
22.07.2013 14:55 30,0 C 33 % 1022,6 hPa 0,0 l/m 2,7 km/h (1 Bft) W-NW 292 11,9 C 32,2 C 3,9 km/h (1 Bft)
22.07.2013 15:00 29,7 C 33 % 1022,6 hPa 0,0 l/m 1,8 km/h (1 Bft) W-SW 247 11,7 C 33,1 C 4,8 km/h (1 Bft)
22.07.2013 15:05 30,3 C 33 % 1022,5 hPa 0,0 l/m 2,1 km/h (1 Bft) W-SW 247 12,2 C 33,2 C 9,0 km/h (2 Bft)
22.07.2013 15:10 30,2 C 32 % 1022,5 hPa 0,0 l/m 3,7 km/h (1 Bft) W-NW 292 11,7 C 32,5 C 5,5 km/h (1 Bft)
22.07.2013 15:15 30,3 C 33 % 1022,5 hPa 0,0 l/m 4,7 km/h (1 Bft) W-SW 247 12,2 C 32,3 C 5,0 km/h (1 Bft)
22.07.2013 15:20 30,2 C 32 % 1022,5 hPa 0,0 l/m 4,5 km/h (1 Bft) W 270 11,7 C 32,1 C 4,8 km/h (1 Bft)
22.07.2013 15:25 30,3 C 31 % 1022,4 hPa 0,0 l/m 4,3 km/h (1 Bft) SO 135 11,3 C 32,1 C 2,7 km/h (1 Bft)
22.07.2013 15:30 29,8 C 33 % 1022,4 hPa 0,0 l/m 3,1 km/h (1 Bft) W 270 11,8 C 32,6 C 2,3 km/h (1 Bft)
22.07.2013 15:35 29,9 C 33 % 1022,4 hPa 0,0 l/m 3,2 km/h (1 Bft) S 180 11,9 C 32,9 C 5,8 km/h (2 Bft)
22.07.2013 15:40 29,9 C 31 % 1022,4 hPa 0,0 l/m 5,0 km/h (1 Bft) S-SW 202 10,9 C 32,3 C 6,4 km/h (2 Bft)
22.07.2013 15:45 30,0 C 32 % 1022,2 hPa 0,0 l/m 5,5 km/h (1 Bft) W 270 11,5 C 32,1 C 7,2 km/h (2 Bft)
22.07.2013 15:50 30,4 C 33 % 1022,2 hPa 0,0 l/m 4,7 km/h (1 Bft) S-SW 202 12,3 C 31,9 C 5,0 km/h (1 Bft)
22.07.2013 15:55 30,5 C 33 % 1022,2 hPa 0,0 l/m 3,9 km/h (1 Bft) W-SW 247 12,4 C 32,3 C 2,3 km/h (1 Bft)
22.07.2013 16:00 30,1 C 33 % 1022,2 hPa 0,0 l/m 3,1 km/h (1 Bft) W 270 12,0 C 32,9 C 3,9 km/h (1 Bft)
22.07.2013 16:05 30,4 C 33 % 1022,1 hPa 0,0 l/m 3,1 km/h (1 Bft) W 270 12,3 C 32,9 C 3,9 km/h (1 Bft)
22.07.2013 16:10 30,2 C 31 % 1022,1 hPa 0,0 l/m 3,9 km/h (1 Bft) W-SW 247 11,2 C 32,8 C 1,6 km/h (1 Bft)
22.07.2013 16:15 30,6 C 31 % 1022,1 hPa 0,0 l/m 3,4 km/h (1 Bft) W-SW 247 11,5 C 33,2 C 3,4 km/h (1 Bft)
22.07.2013 16:20 30,3 C 32 % 1022,1 hPa 0,0 l/m 2,4 km/h (1 Bft) W 270 11,7 C 33,4 C 2,3 km/h (1 Bft)
22.07.2013 16:25 29,5 C 32 % 1021,9 hPa 0,0 l/m 4,2 km/h (1 Bft) SO 135 11,0 C 33,3 C 8,9 km/h (2 Bft)
22.07.2013 16:30 29,2 C 32 % 1021,9 hPa 0,0 l/m 5,0 km/h (1 Bft) N-NO 22 10,8 C 32,8 C 2,6 km/h (1 Bft)
22.07.2013 16:35 29,2 C 32 % 1021,9 hPa 0,0 l/m 4,0 km/h (1 Bft) W-NW 292 10,8 C 33,1 C 7,7 km/h (2 Bft)
22.07.2013 16:40 29,0 C 31 % 1021,9 hPa 0,0 l/m 4,2 km/h (1 Bft) N-NW 337 10,1 C 32,8 C 4,5 km/h (1 Bft)
22.07.2013 16:45 28,8 C 33 % 1021,9 hPa 0,0 l/m 4,7 km/h (1 Bft) W-NW 292 10,9 C 32,7 C 4,3 km/h (1 Bft)
22.07.2013 16:50 28,3 C 32 % 1021,9 hPa 0,0 l/m 4,0 km/h (1 Bft) N-NW 337 10,0 C 33,0 C 6,9 km/h (2 Bft)
22.07.2013 16:55 27,9 C 35 % 1021,9 hPa 0,0 l/m 4,2 km/h (1 Bft) NW 315 11,0 C 32,9 C 7,1 km/h (2 Bft)
22.07.2013 17:00 27,5 C 35 % 1021,9 hPa 0,0 l/m 4,2 km/h (1 Bft) N 360 10,7 C 33,0 C 7,1 km/h (2 Bft)
22.07.2013 17:05 27,2 C 35 % 1021,8 hPa 0,0 l/m 4,0 km/h (1 Bft) N-NO 22 10,4 C 33,1 C 4,7 km/h (1 Bft)
22.07.2013 17:10 27,2 C 36 % 1021,8 hPa 0,0 l/m 4,5 km/h (1 Bft) W-SW 247 10,8 C 33,1 C 6,0 km/h (2 Bft)
22.07.2013 17:15 27,2 C 36 % 1021,8 hPa 0,0 l/m 3,9 km/h (1 Bft) W 270 10,8 C 32,8 C 5,1 km/h (1 Bft)
22.07.2013 17:20 27,1 C 34 % 1021,8 hPa 0,0 l/m 4,0 km/h (1 Bft) O-SO 112 9,9 C 33,0 C 6,3 km/h (2 Bft)
22.07.2013 17:25 26,8 C 37 % 1021,8 hPa 0,0 l/m 3,9 km/h (1 Bft) NW 315 10,9 C 33,2 C 7,7 km/h (2 Bft)
22.07.2013 17:30 26,7 C 36 % 1021,8 hPa 0,0 l/m 4,2 km/h (1 Bft) N-NW 337 10,4 C 33,0 C 6,8 km/h (2 Bft)
22.07.2013 17:35 26,8 C 36 % 1021,8 hPa 0,0 l/m 4,7 km/h (1 Bft) W-SW 247 10,5 C 32,7 C 2,1 km/h (1 Bft)
22.07.2013 17:40 26,8 C 37 % 1021,8 hPa 0,0 l/m 4,5 km/h (1 Bft) NW 315 10,9 C 32,7 C 6,8 km/h (2 Bft)
22.07.2013 17:45 26,8 C 35 % 1021,9 hPa 0,0 l/m 4,3 km/h (1 Bft) W 270 10,0 C 32,7 C 4,5 km/h (1 Bft)
22.07.2013 17:50 26,6 C 35 % 1021,9 hPa 0,0 l/m 4,5 km/h (1 Bft) W-NW 292 9,9 C 32,7 C 3,4 km/h (1 Bft)
22.07.2013 17:55 26,5 C 35 % 1021,9 hPa 0,0 l/m 3,5 km/h (1 Bft) W-NW 292 9,8 C 32,8 C 3,2 km/h (1 Bft)
22.07.2013 18:00 26,4 C 37 % 1021,9 hPa 0,0 l/m 2,9 km/h (1 Bft) O-SO 112 10,5 C 33,1 C 0,0 km/h (0 Bft)
22.07.2013 18:05 26,4 C 37 % 1021,7 hPa 0,0 l/m 2,9 km/h (1 Bft) W-NW 292 10,5 C 33,2 C 2,6 km/h (1 Bft)
22.07.2013 18:10 26,5 C 36 % 1021,7 hPa 0,0 l/m 3,5 km/h (1 Bft) W-SW 247 10,2 C 33,0 C 6,1 km/h (2 Bft)
22.07.2013 18:15 26,7 C 35 % 1021,7 hPa 0,0 l/m 4,8 km/h (1 Bft) W-NW 292 10,0 C 32,6 C 5,5 km/h (1 Bft)
22.07.2013 18:20 26,5 C 36 % 1021,7 hPa 0,0 l/m 3,4 km/h (1 Bft) N 360 10,2 C 32,8 C 0,0 km/h (0 Bft)
22.07.2013 18:25 26,6 C 35 % 1023,1 hPa 0,0 l/m 2,7 km/h (1 Bft) W 270 9,9 C 33,2 C 6,9 km/h (2 Bft)
22.07.2013 18:30 26,7 C 36 % 1023,1 hPa 0,0 l/m 4,2 km/h (1 Bft) W-SW 247 10,4 C 32,5 C 8,7 km/h (2 Bft)
22.07.2013 18:35 26,4 C 35 % 1023,1 hPa 0,0 l/m 4,2 km/h (1 Bft) N-NW 337 9,7 C 32,4 C 3,5 km/h (1 Bft)
22.07.2013 18:40 26,4 C 35 % 1023,1 hPa 0,0 l/m 3,2 km/h (1 Bft) S-SW 202 9,7 C 32,7 C 3,9 km/h (1 Bft)
22.07.2013 18:45 26,6 C 35 % 1023,6 hPa 0,0 l/m 3,5 km/h (1 Bft) S-SW 202 9,9 C 32,4 C 6,8 km/h (2 Bft)
22.07.2013 18:50 26,5 C 36 % 1023,6 hPa 0,0 l/m 3,1 km/h (1 Bft) W-SW 247 10,2 C 32,2 C 1,9 km/h (1 Bft)
22.07.2013 18:55 26,2 C 37 % 1023,6 hPa 0,0 l/m 1,8 km/h (1 Bft) W-NW 292 10,3 C 32,7 C 0,0 km/h (0 Bft)
22.07.2013 19:00 26,1 C 37 % 1023,6 hPa 0,0 l/m 1,1 km/h (1 Bft) W 270 10,3 C 33,2 C 5,3 km/h (1 Bft)
22.07.2013 19:05 26,1 C 36 % 1022,1 hPa 0,0 l/m 2,7 km/h (1 Bft) NW 315 9,8 C 32,5 C 2,6 km/h (1 Bft)
22.07.2013 19:10 26,0 C 36 % 1022,1 hPa 0,0 l/m 4,3 km/h (1 Bft) W-NW 292 9,8 C 31,9 C 7,2 km/h (2 Bft)
22.07.2013 19:15 26,0 C 36 % 1022,1 hPa 0,0 l/m 3,9 km/h (1 Bft) N-NO 22 9,8 C 31,5 C 5,3 km/h (1 Bft)
22.07.2013 19:20 25,8 C 37 % 1022,1 hPa 0,0 l/m 4,0 km/h (1 Bft) S-SO 157 10,0 C 31,4 C 4,8 km/h (1 Bft)
22.07.2013 19:25 25,5 C 39 % 1021,4 hPa 0,0 l/m 3,4 km/h (1 Bft) N-NO 22 10,5 C 31,4 C 2,6 km/h (1 Bft)
22.07.2013 19:30 25,2 C 40 % 1021,4 hPa 0,0 l/m 2,7 km/h (1 Bft) W-NW 292 10,6 C 31,2 C 1,8 km/h (1 Bft)
22.07.2013 19:35 25,1 C 41 % 1021,4 hPa 0,0 l/m 2,3 km/h (1 Bft) S-SW 202 10,9 C 31,3 C 4,2 km/h (1 Bft)
22.07.2013 19:40 25,0 C 41 % 1021,4 hPa 0,0 l/m 1,0 km/h (0 Bft) N-NO 22 10,8 C 31,3 C 0,0 km/h (0 Bft)
22.07.2013 19:45 24,9 C 43 % 1021,1 hPa 0,0 l/m 1,8 km/h (1 Bft) N-NW 337 11,4 C 31,3 C 5,8 km/h (2 Bft)
22.07.2013 19:50 24,8 C 42 % 1021,1 hPa 0,0 l/m 1,9 km/h (1 Bft) NO 45 11,0 C 30,9 C 1,9 km/h (1 Bft)
22.07.2013 19:55 24,6 C 43 % 1021,1 hPa 0,0 l/m 1,9 km/h (1 Bft) N-NO 22 11,2 C 30,7 C 3,5 km/h (1 Bft)
22.07.2013 20:00 24,4 C 43 % 1021,1 hPa 0,0 l/m 1,0 km/h (0 Bft) O-SO 112 11,0 C 30,5 C 0,0 km/h (0 Bft)
22.07.2013 20:05 24,3 C 44 % 1020,8 hPa 0,0 l/m 1,6 km/h (1 Bft) W 270 11,3 C 30,1 C 1,8 km/h (1 Bft)
22.07.2013 20:10 24,2 C 44 % 1020,8 hPa 0,0 l/m 1,9 km/h (1 Bft) O 90 11,2 C 29,5 C 0,0 km/h (0 Bft)
22.07.2013 20:15 24,1 C 43 % 1020,8 hPa 0,0 l/m 1,6 km/h (1 Bft) O 90 10,7 C 29,3 C 3,4 km/h (1 Bft)
22.07.2013 20:20 23,8 C 44 % 1020,8 hPa 0,0 l/m 1,6 km/h (1 Bft) O 90 10,8 C 28,7 C 1,9 km/h (1 Bft)
22.07.2013 20:25 23,6 C 45 % 1020,8 hPa 0,0 l/m 1,9 km/h (1 Bft) NO 45 11,0 C 28,3 C 2,1 km/h (1 Bft)
22.07.2013 20:30 23,3 C 44 % 1020,8 hPa 0,0 l/m 1,9 km/h (1 Bft) O 90 10,4 C 27,2 C 2,9 km/h (1 Bft)
22.07.2013 20:35 23,2 C 45 % 1020,8 hPa 0,0 l/m 2,4 km/h (1 Bft) O 90 10,6 C 26,1 C 3,7 km/h (1 Bft)
22.07.2013 20:40 22,7 C 47 % 1020,8 hPa 0,0 l/m 3,1 km/h (1 Bft) NO 45 10,8 C 25,0 C 3,7 km/h (1 Bft)
22.07.2013 20:45 22,6 C 47 % 1020,8 hPa 0,0 l/m 2,7 km/h (1 Bft) O 90 10,7 C 24,6 C 2,7 km/h (1 Bft)
22.07.2013 20:50 21,9 C 49 % 1020,8 hPa 0,0 l/m 1,6 km/h (1 Bft) SO 135 10,7 C 23,9 C 0,0 km/h (0 Bft)
22.07.2013 20:55 21,6 C 49 % 1020,8 hPa 0,0 l/m 1,1 km/h (1 Bft) O 90 10,4 C 23,1 C 1,8 km/h (1 Bft)
22.07.2013 21:00 21,2 C 51 % 1020,8 hPa 0,0 l/m 2,1 km/h (1 Bft) O 90 10,7 C 22,1 C 3,1 km/h (1 Bft)
22.07.2013 21:05 21,1 C 52 % 1020,9 hPa 0,0 l/m 2,7 km/h (1 Bft) O-NO 67 10,9 C 21,4 C 2,3 km/h (1 Bft)
22.07.2013 21:10 20,4 C 54 % 1020,9 hPa 0,0 l/m 2,1 km/h (1 Bft) O 90 10,8 C 20,4 C 0,0 km/h (0 Bft)
22.07.2013 21:15 20,0 C 55 % 1020,9 hPa 0,0 l/m 1,8 km/h (1 Bft) O-NO 67 10,7 C 20,0 C 3,4 km/h (1 Bft)
22.07.2013 21:20 19,5 C 57 % 1020,9 hPa 0,0 l/m 1,4 km/h (1 Bft) NO 45 10,8 C 19,4 C 0,0 km/h (0 Bft)
22.07.2013 21:25 19,2 C 58 % 1020,6 hPa 0,0 l/m 1,3 km/h (1 Bft) O-NO 67 10,7 C 19,0 C 2,3 km/h (1 Bft)
22.07.2013 21:30 19,1 C 58 % 1020,6 hPa 0,0 l/m 1,3 km/h (1 Bft) O 90 10,6 C 18,6 C 3,1 km/h (1 Bft)
22.07.2013 21:35 18,8 C 59 % 1020,6 hPa 0,0 l/m 1,6 km/h (1 Bft) O-NO 67 10,6 C 18,4 C 0,0 km/h (0 Bft)
22.07.2013 21:40 18,7 C 60 % 1020,6 hPa 0,0 l/m 1,3 km/h (1 Bft) NO 45 10,8 C 18,1 C 0,0 km/h (0 Bft)
22.07.2013 21:45 18,3 C 61 % 1020,4 hPa 0,0 l/m 0,8 km/h (0 Bft) O 90 10,6 C 17,9 C 3,1 km/h (1 Bft)
22.07.2013 21:50 18,3 C 61 % 1020,4 hPa 0,0 l/m 1,0 km/h (0 Bft) O 90 10,6 C 17,7 C 0,0 km/h (0 Bft)
22.07.2013 21:55 18,1 C 62 % 1020,4 hPa 0,0 l/m 1,8 km/h (1 Bft) O-SO 112 10,7 C 17,5 C 3,2 km/h (1 Bft)
22.07.2013 22:00 18,3 C 61 % 1020,4 hPa 0,0 l/m 3,1 km/h (1 Bft) O-NO 67 10,6 C 17,4 C 6,0 km/h (2 Bft)
22.07.2013 22:05 18,3 C 60 % 1020,4 hPa 0,0 l/m 3,9 km/h (1 Bft) O 90 10,4 C 17,6 C 5,1 km/h (1 Bft)
22.07.2013 22:10 18,3 C 61 % 1020,4 hPa 0,0 l/m 4,7 km/h (1 Bft) O 90 10,6 C 17,8 C 6,4 km/h (2 Bft)
22.07.2013 22:15 18,0 C 63 % 1020,4 hPa 0,0 l/m 5,1 km/h (1 Bft) O 90 10,8 C 17,9 C 6,1 km/h (2 Bft)
22.07.2013 22:20 17,8 C 63 % 1020,4 hPa 0,0 l/m 5,3 km/h (1 Bft) O-NO 67 10,7 C 17,6 C 5,3 km/h (1 Bft)
22.07.2013 22:25 17,6 C 63 % 1020,2 hPa 0,0 l/m 5,1 km/h (1 Bft) NO 45 10,5 C 17,4 C 5,3 km/h (1 Bft)
22.07.2013 22:30 17,1 C 65 % 1020,2 hPa 0,0 l/m 3,7 km/h (1 Bft) O 90 10,5 C 17,1 C 4,3 km/h (1 Bft)
22.07.2013 22:35 17,4 C 66 % 1020,2 hPa 0,0 l/m 3,7 km/h (1 Bft) O 90 11,0 C 16,9 C 5,6 km/h (1 Bft)
22.07.2013 22:40 17,6 C 65 % 1020,2 hPa 0,0 l/m 4,7 km/h (1 Bft) O 90 10,9 C 16,9 C 6,0 km/h (2 Bft)
22.07.2013 22:45 17,1 C 66 % 1020,5 hPa 0,0 l/m 4,7 km/h (1 Bft) O 90 10,7 C 16,9 C 2,4 km/h (1 Bft)
22.07.2013 22:50 16,4 C 67 % 1020,5 hPa 0,0 l/m 2,9 km/h (1 Bft) O 90 10,3 C 16,5 C 1,8 km/h (1 Bft)
22.07.2013 22:55 16,2 C 67 % 1020,5 hPa 0,0 l/m 0,8 km/h (0 Bft) SO 135 10,1 C 16,3 C 0,0 km/h (0 Bft)
22.07.2013 23:00 16,1 C 68 % 1020,5 hPa 0,0 l/m 0,3 km/h (0 Bft) S-SW 202 10,2 C 16,0 C 2,9 km/h (1 Bft)
22.07.2013 23:05 16,0 C 68 % 1020,4 hPa 0,0 l/m 0,3 km/h (0 Bft) O 90 10,1 C 16,0 C 0,0 km/h (0 Bft)
22.07.2013 23:10 16,2 C 69 % 1020,4 hPa 0,0 l/m 0,6 km/h (0 Bft) O 90 10,5 C 16,0 C 1,9 km/h (1 Bft)
22.07.2013 23:15 16,1 C 68 % 1020,4 hPa 0,0 l/m 0,6 km/h (0 Bft) O 90 10,2 C 16,0 C 1,9 km/h (1 Bft)
22.07.2013 23:20 16,0 C 68 % 1020,4 hPa 0,0 l/m 0,3 km/h (0 Bft) O-SO 112 10,1 C 15,8 C 0,0 km/h (0 Bft)
22.07.2013 23:25 15,7 C 69 % 1020,8 hPa 0,0 l/m 0,0 km/h (0 Bft) O 90 10,0 C 15,6 C 0,0 km/h (0 Bft)
22.07.2013 23:30 15,8 C 71 % 1020,8 hPa 0,0 l/m 0,6 km/h (0 Bft) O-SO 112 10,6 C 15,5 C 2,4 km/h (1 Bft)
22.07.2013 23:35 15,9 C 70 % 1020,8 hPa 0,0 l/m 1,3 km/h (1 Bft) S 180 10,4 C 15,7 C 2,1 km/h (1 Bft)
22.07.2013 23:40 16,0 C 70 % 1020,8 hPa 0,0 l/m 1,1 km/h (1 Bft) O 90 10,5 C 15,8 C 0,0 km/h (0 Bft)
22.07.2013 23:45 15,9 C 70 % 1020,9 hPa 0,0 l/m 0,3 km/h (0 Bft) O 90 10,4 C 15,8 C 0,0 km/h (0 Bft)
22.07.2013 23:50 15,7 C 70 % 1020,9 hPa 0,0 l/m 0,0 km/h (0 Bft) S-SO 157 10,2 C 15,5 C 0,0 km/h (0 Bft)
22.07.2013 23:55 15,5 C 70 % 1020,9 hPa 0,0 l/m 0,0 km/h (0 Bft) O-SO 112 10,1 C 15,3 C 0,0 km/h (0 Bft)
_ Min-Zeit 05:40 16:40 22:40 - 23:55 - - 05:40 05:40 23:55
Minimum _ 11,0 C 31 % 1020,2 hPa - 0,0 km/h (0 Bft) - - 9,3 C 10,8 C 0,0 km/h (0 Bft)
_ Max-Zeit 16:15 05:15 10:40 23:55 15:45 - - 07:25 16:20 12:30
Maximum _ 30,6 C 90 % 1026,3 hPa 0,0 l/m 5,5 km/h
W (1 Bft)
- - 16,0 C 33,4 C 14,0 km/h
N (3 Bft)
Durchschnitt _ 21,8 C 56 % 1022,7 hPa #0,0 l/m 1,9 km/h (1 Bft) W-SW - 11,4 C 23,2 C 2,4 km/h (1 Bft)